Terminal Aerodrome Forecast
Issued by NWS

Home | Current Version | Previous Version | Graphics & Text | Print | Product List | Glossary On
Versions: 1 2 3 4 5 6 7 8 9 10 11 12 13 14 15 16 17 18 19 20 21 22 23 24 25 26
000
FTUS43 KLOT 180730 AAA
TAFGYY
TAF AMD
KGYY 180730Z 1808/1906 34003KT 3SM -DZ BR SCT009 OVC015
      TEMPO 1808/1809 1SM -DZ BR SCT004 OVC009
     FM180900 36003KT 1SM -DZ BR OVC004
     FM181200 35008KT 2SM -RADZ BR OVC004
     FM181500 36022G34KT 2SM RA BR BKN005 OVC015
     FM182200 34022G33KT 4SM -RA OVC015
     FM190000 33018G28KT P6SM BKN015=

USA.gov is the U.S. government's official web portal to all federal, state and local government web resources and services.